COSMOS 1275 DEB

Satellite information

Favourite Embed

Satellite Type and Status

DEBRISIN ORBIT

Key statistics

Satellite COSMOS 1275 DEB at a glance.

Uptime

16266

Days in orbit

Revolutions

≈ 14.8

Per day

Orbit

LEO

Low Earth Orbit

Inclination

82.9

Latest

Satellite identification and parameters

Extended collection of information and parameters for COSMOS 1275 DEB.

Object identification

Identified? True

Debris? True

Object name: COSMOS 1275 DEB

International designator: 1981-053EX

Object number (NORAD): 13026

Object ID (CCSDS): 13026

Country: COMMONWEALTH OF INDEPENDENT STATES (CIS)

Current information (Y/N): Y

RCS size: SMALL

Orbital parameters

Period: 97.367 minutes

Inclination: 82.9186 deg

SMA: 7010.825 km

Apoapsis: 639.451 km

Periapsis: 625.929 km

RAAN: 342.9953 deg

Eccentricy: 0.00096441

Argument of periapsis: 64.8316 deg

Mean anomaly: 295.3897 deg

Mean motion: 14.78934977 rev/day

Mean motion (dot): 0.0001714 rev/day2

B* drag term: 0.002315956 1/REarth

Two-line elements (TLE)

Creation date: Dec. 16, 2025, 2:19 a.m.

Reference frame: TEME

Reference center: EARTH

Epoch: Dec. 15, 2025, 10:36 p.m. UTC

TLE line 0: 0 COSMOS 1275 DEB

TLE line 1: 1 13026U 81053EX 25349.94200576 .00017140 00000-0 23160-2 0 9992

TLE line 2: 2 13026 82.9186 342.9953 0009644 64.8316 295.3897 14.78934977268417

Live tracking on map

Real-time ground track for satellite COSMOS 1275 DEB.

In-orbit conjunctions

A list of the most updated potential collisions computed for object COSMOS 1275 DEB.

Target Orbit TCA Probability of collision Miss distance Type
PEGASUS R/B LEO 2025-05-13 02:03:10 0.0001323171 227.0 (m) ROCKET BODY

Associated space launch

Navigation satellite providing location information for the Tsiklon-B navigation system

COSMOS 1275 DEB was lifted into orbit during the mission ‘Kosmos-3M | Parus 27’, on board a Kosmos-3M space rocket.

The launch took place on June 4, 1981, 3:41 p.m. from 132/2.

For more information about the launch, click the button.

Launch to space Kosmos-3M | Parus 27
Kosmos-3M | Parus 27

Agency: N/A

Status: Launch Successful

Launch date: June 4, 1981, 3:41 p.m. UTC

Rocket: Kosmos-3M

Launch pad: 132/2

Location: Plesetsk Cosmodrome, Russian Federation

...

Latest news about this satellite

There are no fresh news available about this satellite. Check back as we update our databases every day.


Newsletter sign-up

Weekly statistics, charts and insights to help you stay on top of the space industry.